Regional Weather Roundup
Issued by NWS Charleston, SC

Current Version | Previous Version | Graphics & Text | Print | Product List | Glossary On
Versions: 1 2 3 4 5 6 7 8 9 10 11 12 13 14 15 16 17 18 19 20 21 22 23 24 25 26 27 28 29 30 31 32 33 34 35 36 37 38 39 40 41 42 43 44 45 46 47 48 49 50
064 ASUS42 KCHS 251212 RWRCHS REGIONAL WEATHER ROUNDUP NATIONAL WEATHER SERVICE CHARLESTON SC 800 AM EDT THU AUG 25 2016 NOTE: "FAIR" INDICATES FEW OR NO CLOUDS BELOW 12,000 FEET WITH NO SIGNIFICANT WEATHER AND/OR OBSTRUCTIONS TO VISIBILITY. NOT ALL STATIONS ARE QUALITY CONTROLLED. USE DATA WITH CAUTION... ESPECIALLY DEWPOINT OBSERVATIONS. SCZ027-030-031-034>040-042>050-251300- ...SOUTHEAST SOUTH CAROLINA... CITY SKY/WX TMP DP RH WIND PRES REMARKS N CHARLESTON MOSUNNY 74 65 73 NE7 30.15R 6HR MIN TEMP: 68; 6HR MAX TEMP: 74; WATERFRONT PRK N/A 74 68 81 N7 30.12R MOUNT PLEASANT FAIR 72 66 83 CALM 30.15R JOHNS ISLAND FAIR 75 70 83 N7 30.15R PINOPOLIS N/A 77 68 73 N7 30.09R MONCKS CORNER FAIR 72 68 88 N3 30.16S SUMMERVILLE FAIR 68 68 100 CALM 30.17R BEAUFORT MCAS MOSUNNY 73 67 81 N8 30.15R 6HR MIN TEMP: 71; 6HR MAX TEMP: 75; BEAUFORT ARPT FAIR 73 68 83 N5 30.14R HILTON HEAD IS SUNNY 77 68 73 N12 30.16R WALTERBORO SUNNY 70 70 100 N5 30.17S ALLENDALE FAIR 70 66 88 CALM 30.17R ...SOUTHERN MIDLANDS AND PEE DEE... CITY SKY/WX TMP DP RH WIND PRES REMARKS GEORGETOWN FAIR 68 64 88 N3 30.16S KINGSTREE FAIR 68 64 88 CALM 30.17S ORANGEBURG SUNNY 69 67 93 CALM 30.18R 6HR MIN TEMP: 65; 6HR MAX TEMP: 69; BARNWELL NOT AVBL AIKEN FAIR 70 64 83 CALM 30.23R MANNING FAIR 64 64 100 CALM 30.17S COLUMBIA MOSUNNY 70 66 87 CALM 30.17S 6HR MIN TEMP: 68; 6HR MAX TEMP: 74; SUMTER SUNNY 69 66 89 CALM 30.16R 6HR MIN TEMP: 67; 6HR MAX TEMP: 70; 6HR PCP: TRACE; FLORENCE MOSUNNY 73 66 78 N5 30.19R 6HR MIN TEMP: 64; 6HR MAX TEMP: 73; MYRTLE BEACH SUNNY 72 61 68 N8 30.17R N MYRTLE BEACH SUNNY 72 68 87 N5 30.15R 6HR MIN TEMP: 68; 6HR MAX TEMP: 72; $$ GAZ063-065-086>088-099>101-113>116-118-119-134>141-150-251300- ...SOUTHEAST GEORGIA... CITY SKY/WX TMP DP RH WIND PRES REMARKS SAVANNAH ARPT MOSUNNY 71 66 84 N8 30.15R 6HR MIN TEMP: 68; 6HR MAX TEMP: 72; HUNTER AAF SUNNY 73 72 97 N6 30.12R 6HR MIN TEMP: 71; 6HR MAX TEMP: 73; FORT STEWART SUNNY 71 67 87 N2 30.12R 6HR MIN TEMP: 68; 6HR MAX TEMP: 71; STATESBORO SUNNY 70 69 95 CALM 30.17R SYLVANIA NOT AVBL CLAXTON FAIR 66 66 100 CALM 30.16R ...CSRA...CENTRAL AND FAR SOUTHEAST GEORGIA... CITY SKY/WX TMP DP RH WIND PRES REMARKS THOMSON SUNNY 71 71 100 MISG 30.24R AUGUSTA-BUSH SUNNY 71 69 93 CALM 30.18R 6HR MIN TEMP: 67; 6HR MAX TEMP: 73; AUGUSTA-DANIEL SUNNY 76 68 76 CALM 30.19R SWAINSBORO FAIR 68 66 94 CALM 30.19R VIDALIA SUNNY 72 70 94 NE3 30.17R EASTMAN FAIR 70 69 99 CALM 30.20R HAZLEHURST FAIR 72 72 100 CALM 30.16R ALMA SUNNY 71 68 90 CALM 30.15R 6HR MIN TEMP: 68; 6HR MAX TEMP: 71; WAYCROSS N/A 74 72 93 NE3 30.14R JESUP FAIR 72 72 100 NE5 30.15R BAXLEY FAIR 70 70 100 CALM 30.15R BRUNSWICK SUNNY 73 72 94 N5 30.13R SAINT SIMONS SUNNY 77 71 82 N7 30.12R 6HR MIN TEMP: 75; 6HR MAX TEMP: 82; $$ SCZ027-028-034-036>038-045-046-048>050-GAZ119-141-251300- ...LAKE AND SUPPLEMENTAL COASTAL OBSERVATIONS... STATION/POSITION TIME TEMP WIND PRES WAVE SWELL AIR SEA DIR/SP/G HT/PER HT/PER/DIR (UTC) (F) (DEG/KT/KT) (MB) (FT/S) (FT/S/D) WINYAH BAY NOT AVBL LAKE MURRAY 1100 76 310/ 2/ 4 1021.0S ACE BASIN NERRS NOT AVBL FORT PULASKI 1100 76 86 360/ 6/ 9 1020.4R SAPELO ISLAND 1100 75 10/ 5 1019.0S $$ ANZ835-935-AMZ111-154-330-350-352-354-370-450-454-472-251300- ...C-MAN AND BUOY OBSERVATIONS... STATION/POSITION TIME TEMP WIND PRES WAVE SWELL AIR SEA DIR/SP/G HT/PER HT/PER/DIR (UTC) (F) (DEG/KT/KT) (MB) (FT/S) (FT/S/D) BUOY 41004 1150 81 83 20/ 12/ 14 1019.3R 3/11 2/ 80/11 BUOY 41008 1150 82 85 50/ 12/ 16 1019.4R 3/ 7 2/110/ 7 FOLLY BEACH CMAN 1200 76 350/ 8/ 11 1020.8R CAPERS NEARSHORE 1108 77 10/ 12/ 16 1020.0R FRIPP NEARSHORE 1108 80 86 40/ 16/ 19 1019.4R STATION/POSITION TIME TEMP WIND PRES WAVE SWELL AIR SEA DIR/SP/G HT/PER HT/PER/DIR (UTC) (F) (DEG/KT/KT) (MB) (FT/S) (FT/S/D) 5E ST. MARYS GA 1101 84 N/A 4/ 7 2/110/11 FRYING PAN BUOY 1100 82 84 70/ 10/ 12 1019.9R BUOY 41025 1150 81 84 90/ 10/ 12 1021.1R 3/10 3/120/10 CAPE LOOKOUT NC 1200 79 360/ 7/ 8 1020.9R BUOY 41002 1150 81 84 60/ 14/ 17 1018.9R 6/ 8 3/ 90/ 8 BUOY 41010 NOT AVBL ST AUGUSTINE FL 1200 81 83 30/ 15/ 15 1019.7R $$

USA.gov is the U.S. government's official web portal to all federal, state and local government web resources and services.